Nome, AK

6:43 AM AKST on February 08, 2016 (GMT -0900)
Nome

Weather History for PAOM - August, 2014

Change the Weather History Date:

Thursday, August 14, 2014

  Actual Average Record
Temperature  
Mean Temperature 58 °F 50 °F  
Max Temperature 65 °F 56 °F 81 °F (2005)
Min Temperature 51 °F 45 °F 29 °F (1973)
Degree Days  
Heating Degree Days 7 15  
Month to date heating degree days 62 198  
Since 1 June heating degree days 1053 1114  
Since 1 July heating degree days 485 598  
Cooling Degree Days 0    
Month to date cooling degree days 1  
Year to date cooling degree days 3  
Since 1 June cooling degree days 3  
Growing Degree Days 8 (Base 50)    
Moisture  
Dew Point 53 °F    
Average Humidity 0    
Maximum Humidity 0    
Minimum Humidity 0    
Precipitation  
Precipitation 0.01 in 0.10 in 1.26 in (1976)
Month to date precipitation 0.14 1.48  
Year to date precipitation 7.45 8.71  
Snow  
Snow 0.00 in 0.00 in 0.00 in (2015)
Month to date snowfall 0.0 0.0  
Since 1 June snowfall 0.0 0.3  
Since 1 July snowfall 0.0 0.0  
Snow Depth 0.00 in    
Sea Level Pressure  
Sea Level Pressure 29.57 in    
Wind  
Wind Speed 6 mph (NE)    
Max Wind Speed 14 mph    
Max Gust Speed 16 mph    
Visibility 10 miles    
Events      
T = Trace of Precipitation, MM = Missing Value Source: NWS Daily Summary

Daily Weather History Graph

Daily Weather History Graph

Search for Another Location

Airport or City:

Trip Planner

Search our weather history database for the weather conditions in past years. The results will help you decide how hot, cold, wet, or windy it might be!

Date:

Astronomy

Aug. 14, 2014 Rise Set
Actual Time 6:48 AM AKDT 11:22 PM AKDT
Civil Twilight 5:39 AM AKDT 12:29 AM AKDT
Nautical Twilight 3:38 AM AKDT 2:33 AM AKDT
Astronomical Twilight Sun does not rise Sun does not rise
Moon 11:40 PM AKDT (8/14) 1:44 PM AKDT (8/14)
Length of Visible Light 18h 49m
Length of Day
16h 34m
Waning Gibbous, 78% of the Moon is Illuminated
Aug 14
Waning Gibbous
Aug 17
Last Quarter
Aug 25
New
Sep 2
First Quarter
Sep 8
Full

Hourly Weather History & Observations

Time (AKDT) Temp. Dew Point Humidity Pressure Visibility Wind Dir Wind Speed Gust Speed Precip Events Conditions
12:53 AM 55.0 °F 52.0 °F 89% 29.56 in 10.0 mi Calm Calm - N/A   Scattered Clouds
1:53 AM 54.0 °F 50.0 °F 86% 29.56 in 10.0 mi North 5.8 mph - N/A   Scattered Clouds
2:53 AM 52.0 °F 50.0 °F 93% 29.57 in 10.0 mi North 5.8 mph - N/A   Scattered Clouds
3:53 AM 51.1 °F 50.0 °F 96% 29.57 in 10.0 mi North 4.6 mph - N/A   Scattered Clouds
4:53 AM 52.0 °F 50.0 °F 93% 29.56 in 10.0 mi North 4.6 mph - N/A   Scattered Clouds
5:53 AM 52.0 °F 50.0 °F 93% 29.57 in 10.0 mi North 3.5 mph - N/A   Mostly Cloudy
6:53 AM 51.1 °F 48.9 °F 92% 29.57 in 10.0 mi North 4.6 mph - N/A   Mostly Cloudy
7:53 AM 54.0 °F 50.0 °F 86% 29.58 in 10.0 mi North 3.5 mph - N/A   Mostly Cloudy
8:53 AM 55.0 °F 52.0 °F 89% 29.58 in 10.0 mi Calm Calm - N/A   Mostly Cloudy
9:53 AM 57.0 °F 53.1 °F 87% 29.58 in 10.0 mi NNW 3.5 mph - N/A   Mostly Cloudy
10:53 AM 62.1 °F 54.0 °F 75% 29.58 in 10.0 mi North 4.6 mph - N/A   Mostly Cloudy
11:53 AM 64.0 °F 53.1 °F 67% 29.57 in 10.0 mi ESE 3.5 mph - N/A   Mostly Cloudy
12:53 PM 63.0 °F 54.0 °F 72% 29.57 in 10.0 mi East 10.4 mph - N/A   Mostly Cloudy
1:53 PM 64.0 °F 55.0 °F 73% 29.57 in 10.0 mi SE 11.5 mph - N/A   Mostly Cloudy
2:45 PM 64.0 °F 57.9 °F 80% 29.57 in 10.0 mi SE 13.8 mph - N/A   Mostly Cloudy
2:53 PM 64.0 °F 55.9 °F 75% 29.57 in 10.0 mi ESE 12.7 mph - N/A   Mostly Cloudy
3:53 PM 63.0 °F 51.1 °F 65% 29.57 in 10.0 mi ESE 10.4 mph - N/A   Mostly Cloudy
4:53 PM 62.1 °F 53.1 °F 72% 29.57 in 10.0 mi ESE 9.2 mph - 0.00 in   Overcast
5:53 PM 62.1 °F 53.1 °F 72% 29.57 in 10.0 mi SSE 8.1 mph - N/A   Overcast
6:53 PM 61.0 °F 57.0 °F 87% 29.56 in 10.0 mi SSE 8.1 mph - 0.00 in   Overcast
7:53 PM 62.1 °F 55.9 °F 80% 29.55 in 10.0 mi SSE 4.6 mph - N/A   Overcast
8:53 PM 63.0 °F 55.0 °F 75% 29.56 in 10.0 mi NW 3.5 mph - N/A   Overcast
9:53 PM 61.0 °F 57.0 °F 87% 29.58 in 10.0 mi Calm Calm - N/A   Overcast
10:53 PM 60.1 °F 55.9 °F 86% 29.56 in 10.0 mi NNE 3.5 mph - 0.01 in   Overcast
11:53 PM 57.0 °F 55.9 °F 96% 29.55 in 10.0 mi North 4.6 mph - N/A   Mostly Cloudy